sat.trackr.live / text

‹ back to catalog

STARLINK-36480

NORAD 67336 · 2026-003C

PAYLOAD ACTIVE UNKNOWN

§ Identity

Operator
Country
US
Launch date
2026-01-09
Launch site
AFETR
Launch vehicle
Mass (kg)
RCS (m²)

Purposes: comms

External: N2YO · Heavens-Above · Gunter

§ Orbital elements

Epoch: 2026-09-19T21:31:40.288512Z

Period
94.27 min
Inclination
42.9988°
Eccentricity
0.0000609
Mean motion
15.27590014 rev/d
Perigee alt
482.6 km
Apogee alt
483.4 km
Semi-major
6,861.2 km
B*
3.7428e-4
RAAN
210.4390°
Arg perigee
209.5718°
Mean anomaly
150.5100°
Rev number
3,852

§ Raw data

STARLINK-364801 67336U 26003C   26262.89699408  .00010055  00000+0  37428-3 0  99942 67336  42.9988 210.4390 0000609 209.5718 150.5100 15.27590014 38527

JSON: /api/v1/satellites/67336 · /tle

For live sub-satellite position, see the globe view (requires WebGL).

§ Visibility from observer

Set your observer location to see the next 7 days of passes ≥ 10°. The values pass through the URL so the page stays shareable.

No JS? Fill the form by hand. The geolocation button needs JavaScript.